Weather in Uiwang

South Korea     37°19′15″N   126°56′56″E
temp.,
°C
wind,
m/s
gust,
m/s
humid.,
%
clouds,
%
prec.,
mm/h
press.,
hPa
HPBL,
m
5 december, sun
sun500:00+2nw11320 0.0 102959
03:00+2nne11320 0.0 102918
06:00+1se11320 0.0 103013
09:00+2ese12320 0.0 1031145
12:00+5ese11230 0.0 1030468
15:00+7nnw01210 0.0 1029594
18:00+6w00230 0.0 102912
21:00+5se11260 0.0 102910
6 december, mon
mon600:00+4ese11300 0.0 102910
03:00+3e11340 0.0 102810
06:00+3e11360 0.0 102810
09:00+4ese11360 0.0 102958
12:00+7se0029100 0.0 1029359
15:00+9s1136100 0.0 1027403
18:00+8sse1143100 0.0 102796
21:00+7se124667 0.0 102870
7 december, tue
tue700:00+6ese115295 0.0 102818
03:00+6e1155100 0.0 102818
06:00+6ne1255100 0.0 102864
09:00+6ne125664 0.0 1030114
12:00+10nne23495 0.0 1030679
15:00+11n23444 0.0 10291100
18:00+9n22491 0.0 103062
21:00+8nne11585 0.0 103117
8 december, wed
wed800:00+7ne11691 0.0 103111
03:00+6ne11760 0.0 103212
06:00+5ene11790 0.0 103110
09:00+6e11750 0.0 103276
12:00+9ene00560 0.0 1032464
15:00+10n11470 0.0 1031620
18:00+9e1149100 0.0 103112
21:00+8ene0051100 0.0 103010
9 december, thu
thu900:00+7ese115398 0.0 103010
03:00+6ene115473 0.0 103010
06:00+6ese1157100 0.0 102911
09:00+6ese1257100 0.0 102995
12:00+9s1247100 0.0 1028433
15:00+10w2349100 0.0 1027707
18:00+9w126160 0.0 1027147
21:00+8w11735 0.0 102713